{"data":{"norad_id":66386,"intl_designator":"2025-257G","name":"STARLINK-35651","alt_names":[],"object_type":"PAYLOAD","status":"ACTIVE","operator":null,"country":"US","launch_date":"2025-11-09","launch_site_code":"AFETR","launch_vehicle":null,"mission":null,"orbit_class":"UNKNOWN","rcs_meters":null,"size_class":null,"mass_kg":null,"dimensions":null,"purposes":["comms"],"wikipedia_slug":null,"has_3d_model":false,"image_url":null,"decayed_at":null,"tle_current":{"epoch":"2026-05-25T05:12:59.141088Z","epoch_age_seconds":60286,"freshness":"FRESH","line1":"1 66386U 25257G   26145.21735117  .00020020  00000+0  68589-3 0  9997","line2":"2 66386  53.1580 221.3187 0001239  83.7448 276.3694 15.30216210 31457","mean_motion":15.3021621,"eccentricity":0.0001239,"inclination_deg":53.158,"raan_deg":221.3187,"arg_perigee_deg":83.7448,"mean_anomaly_deg":276.3694,"bstar":0.00068589,"rev_number":3145,"period_min":94.104348822707,"perigee_km":474.31754538378,"apogee_km":476.01579403314,"semimajor_km":6853.3036697085,"source":"CELESTRAK","updated_at":"2026-05-25T13:38:21.201210Z"}}}